Theta_e
318 321 322 323 322 323 321 321 322 319 320 319 316 316 313 312 312 312 314 316 316 313 310 308 307 307 308 308 308 306 306 306 307 308 308 306 303 303 302 302 302 302 302 301 300 299 298 298 298 298 298 298 298 298 298 298 298 298 298 298 298 298 298 298 300 302 306 309 311 310 308 309 311 312 313 313 312 312 311 317 326 329 330 331 332 332 333 332 332 333 332 332 332 332 330 326 329
319 321 322 322 322 323 321 321 322 319 318 318 315 314 312 310 311 312 312 313 314 311 309 308 307 306 306 306 306 306 306 305 305 305 304 303 303 302 302 302 302 302 302 300 299 298 298 298 298 298 298 298 298 298 298 298 298 298 298 298 298 298 298 299 303 307 311 313 313 314 312 310 312 314 314 315 314 313 313 311 316 324 330 330 331 332 332 333 332 332 332 332 332 332 331 329 330
320 322 322 322 321 321 321 321 321 318 317 316 315 312 310 311 310 309 311 312 311 309 308 310 309 307 307 307 306 307 306 304 304 304 303 303 302 302 302 302 302 302 301 299 298 297 298 298 298 298 299 299 299 299 298 298 298 298 298 298 298 298 299 304 308 311 313 313 313 315 315 313 312 313 313 314 315 314 315 314 312 316 325 331 330 331 332 333 333 332 332 332 332 332 331 331 331
321 322 322 321 322 321 321 321 320 318 315 315 315 311 310 311 309 308 309 309 309 308 309 311 311 308 308 308 306 306 306 304 303 303 302 302 302 302 302 302 302 301 300 299 298 298 298 298 299 299 300 300 299 299 298 298 297 297 297 298 297 298 303 307 310 311 312 313 313 313 314 313 312 312 312 312 314 315 315 315 315 314 318 326 330 331 331 333 334 333 332 332 332 332 332 332 332
322 323 322 322 321 319 318 318 317 317 315 314 314 311 310 309 308 307 307 306 307 308 309 310 310 308 307 306 305 306 306 304 303 302 302 302 302 302 302 302 302 301 301 299 298 298 299 299 300 300 300 300 300 299 299 298 297 297 297 297 298 301 305 307 309 312 312 313 313 314 314 314 313 313 312 311 311 313 315 314 313 315 315 318 325 330 331 331 333 333 333 332 332 332 331 332 332
322 322 321 320 316 315 317 316 315 315 311 311 313 310 309 308 307 307 306 306 305 306 308 309 310 308 307 306 305 305 305 304 303 302 302 302 302 302 302 302 302 301 301 300 299 299 300 300 300 300 300 300 300 299 299 298 297 297 297 297 299 302 304 305 310 313 313 313 313 314 314 314 314 313 313 313 311 311 314 315 313 313 315 315 319 326 330 330 331 333 333 333 332 332 331 331 332
320 320 318 317 314 314 316 315 313 313 309 307 310 309 308 307 306 306 306 306 305 305 307 307 307 308 308 306 306 305 304 303 303 302 302 302 302 302 302 302 302 301 301 300 300 300 300 301 301 301 301 301 300 300 299 298 297 297 297 297 299 301 301 306 312 313 313 313 313 313 314 314 314 314 313 313 313 311 313 315 314 313 314 314 315 321 328 330 330 332 333 334 332 332 332 330 331
319 318 315 316 313 313 314 312 311 310 308 306 307 307 307 306 304 305 306 306 305 305 305 305 305 308 307 306 306 306 303 303 302 302 302 302 302 301 302 301 301 301 300 300 300 300 300 301 301 301 302 302 301 301 299 298 297 297 297 297 298 298 301 308 313 313 313 313 313 312 313 314 314 313 313 312 312 312 312 314 314 313 312 313 313 316 323 329 329 331 331 333 333 332 332 331 330
318 316 314 315 313 312 312 311 309 307 307 306 306 306 305 305 303 304 305 305 305 305 305 305 305 307 307 306 307 306 303 303 302 302 302 302 302 302 302 301 301 301 300 300 300 301 301 302 302 302 302 302 302 302 300 299 297 297 297 297 298 298 303 311 313 314 313 313 312 312 312 312 313 312 312 312 312 312 312 312 313 312 311 312 313 312 318 327 329 329 330 332 333 333 333 332 330
315 314 314 315 313 312 311 310 310 307 306 306 305 305 304 304 303 304 305 305 304 305 305 304 305 306 306 306 306 305 304 303 303 302 302 302 302 302 302 302 301 301 300 300 301 301 301 302 302 302 302 302 302 302 301 299 297 297 297 297 298 299 306 313 314 314 313 313 313 313 312 311 311 311 311 311 312 312 311 312 312 311 311 311 311 311 313 323 329 328 330 332 332 333 334 333 330
313 312 313 314 313 313 312 310 309 307 306 306 305 305 304 303 304 305 305 305 304 305 305 304 305 306 306 306 306 305 303 303 303 303 302 302 302 302 302 302 301 301 301 301 301 302 302 302 302 302 302 302 302 302 302 300 297 297 297 298 298 300 309 314 314 314 314 314 313 313 312 311 310 309 309 310 311 311 311 311 312 311 311 310 309 309 310 318 327 329 329 331 332 333 333 333 332
313 312 314 313 312 312 311 310 309 307 306 306 306 305 304 303 304 305 305 305 305 305 305 305 305 306 306 306 306 304 303 303 303 303 303 303 302 303 302 302 302 302 301 301 301 302 302 302 302 302 302 302 302 302 302 301 298 297 297 297 298 302 311 315 314 315 314 314 313 313 313 312 310 308 308 308 310 311 311 310 311 311 311 311 310 308 308 311 320 326 329 329 330 332 333 333 333
313 314 314 312 310 311 310 310 308 308 307 306 306 304 303 304 305 306 305 306 305 306 305 304 304 305 306 306 305 304 303 303 303 303 303 303 303 303 303 302 302 302 302 301 301 302 302 302 302 302 301 301 302 302 302 301 298 297 297 297 297 302 311 315 314 315 314 314 314 313 312 311 310 309 308 308 308 309 310 310 311 311 311 311 311 310 309 308 311 319 326 328 329 331 331 331 332
311 312 313 309 308 309 309 309 308 309 308 306 305 303 303 304 305 305 305 306 306 306 305 304 304 305 306 306 305 304 304 303 303 303 303 303 303 303 303 303 302 302 302 301 301 302 302 302 302 301 301 301 302 302 302 302 299 297 297 297 297 302 311 315 315 315 314 315 314 313 313 312 312 310 310 309 308 307 308 310 310 311 311 311 311 311 310 309 308 311 319 324 327 330 331 330 332
309 309 311 309 308 309 308 309 308 309 308 305 304 303 304 304 304 304 305 306 306 305 304 304 304 305 306 305 306 305 304 303 303 303 302 302 302 303 303 303 302 302 302 302 301 301 302 302 302 302 302 302 302 302 302 302 300 297 297 298 297 301 309 314 315 314 315 315 314 313 313 312 312 311 311 310 308 306 306 308 309 311 311 311 311 311 310 310 308 307 312 319 321 325 330 330 332
308 309 312 310 310 309 307 307 307 307 307 305 304 303 305 305 304 305 305 305 306 305 305 305 304 304 305 304 305 304 303 303 303 303 302 302 302 302 302 303 302 302 302 302 301 302 302 302 302 302 302 302 301 302 302 302 300 297 298 298 298 300 307 314 315 315 315 315 314 312 313 313 311 310 310 309 308 307 305 305 307 310 311 311 311 311 311 310 308 305 309 315 315 319 327 329 330
307 310 313 310 310 310 308 307 306 307 306 304 304 304 306 306 305 305 305 305 305 305 305 305 304 304 304 304 304 303 303 303 303 303 303 303 302 302 302 302 302 302 302 302 302 302 302 302 302 302 302 302 301 301 301 302 300 298 298 298 298 299 306 314 314 315 315 315 316 314 314 313 310 310 310 308 308 308 306 305 306 309 311 311 311 311 311 310 309 305 305 310 312 316 322 325 329
308 311 312 310 309 309 307 306 305 305 305 305 305 304 306 306 306 305 305 305 305 305 305 305 305 304 304 304 304 303 303 303 303 303 303 303 302 302 302 302 303 302 302 302 302 302 302 302 302 302 302 302 301 301 301 302 301 298 298 298 298 298 304 312 314 315 315 315 316 316 314 311 310 312 311 309 308 307 306 305 306 308 311 311 310 311 311 310 309 306 304 306 308 313 318 322 326
307 310 311 309 308 306 305 305 304 304 306 306 305 304 305 306 305 304 305 307 306 306 306 306 305 305 304 304 304 304 303 303 303 303 303 303 302 302 302 302 303 302 302 303 302 302 302 302 302 302 301 302 301 301 301 302 301 298 298 298 298 298 301 310 315 314 315 315 316 317 314 311 313 312 311 311 310 307 306 306 307 309 310 311 310 311 311 310 309 305 304 304 306 310 314 318 322
306 309 310 307 305 305 303 303 303 303 305 306 305 304 304 305 304 304 306 306 306 306 307 306 306 305 305 304 304 304 304 304 303 303 303 303 303 302 302 302 302 303 302 303 303 302 302 302 302 302 301 301 302 301 301 301 302 299 297 297 297 297 299 305 313 315 315 315 316 317 315 314 315 313 310 311 310 308 308 306 307 309 310 311 311 311 310 310 309 305 302 303 305 307 311 315 319
306 307 308 305 304 305 303 302 302 302 304 305 305 304 304 304 304 304 305 305 306 306 306 305 305 305 305 304 304 304 304 304 304 303 303 303 303 302 302 302 303 303 303 303 303 302 302 302 302 302 301 301 302 302 301 301 301 300 298 297 297 297 297 301 309 314 315 315 315 317 316 316 316 315 312 311 311 310 308 307 307 309 310 310 311 310 310 309 307 303 302 303 304 307 310 315 319
305 303 305 304 304 305 303 302 302 303 304 304 304 304 305 304 304 304 304 305 307 306 305 304 304 304 304 304 304 304 304 304 304 303 303 303 303 302 302 302 303 303 303 303 303 302 302 302 302 302 301 301 302 302 301 301 301 301 299 297 297 297 297 298 303 310 315 315 315 316 317 316 315 316 315 313 313 311 308 307 307 307 308 309 309 308 307 306 304 302 302 304 305 311 317 320 323
306 303 303 303 303 304 303 302 303 303 303 304 304 305 304 304 305 304 304 305 306 306 305 304 304 303 303 304 304 304 305 304 304 304 303 303 303 303 302 302 303 303 303 303 303 302 302 302 302 302 302 301 301 302 302 301 301 301 300 298 297 297 297 297 298 304 313 315 315 315 316 317 316 316 317 315 314 312 309 307 306 305 305 305 305 305 304 302 302 302 305 307 309 316 321 323 326
306 304 303 303 302 303 303 302 303 303 303 304 304 304 304 305 305 303 303 306 306 305 305 304 304 303 303 304 304 304 305 305 304 304 304 303 303 303 302 302 303 303 303 303 303 303 302 302 302 302 302 302 301 302 302 301 301 301 301 299 298 297 297 297 297 300 308 315 315 315 315 317 316 316 317 317 315 313 311 309 307 306 305 304 302 301 301 303 304 305 312 315 315 318 321 324 327
305 304 303 303 302 302 302 302 303 303 304 304 304 305 305 304 303 302 304 306 306 305 305 304 304 304 304 304 304 304 305 305 305 304 304 303 303 303 302 302 303 303 303 303 303 303 302 302 302 302 302 302 302 302 302 302 301 301 301 300 299 298 297 297 297 297 302 311 315 315 314 315 316 315 316 318 316 314 314 314 312 309 306 303 303 304 307 313 315 314 319 321 321 320 322 326 328
304 303 303 304 303 303 303 303 303 303 304 304 304 305 305 303 303 304 306 306 306 306 305 304 304 304 304 304 305 305 305 305 305 304 304 303 303 303 302 302 303 303 303 303 303 303 303 302 302 302 302 302 302 302 302 302 302 301 301 301 300 298 298 297 297 297 298 304 311 315 315 314 316 315 315 317 318 317 317 318 318 316 313 308 308 312 316 319 318 319 322 321 323 325 325 327 327
303 303 304 303 303 302 304 304 303 304 303 303 304 306 305 302 303 306 307 306 306 306 305 304 304 304 304 305 305 305 305 304 304 304 304 303 303 303 303 302 303 303 303 303 303 303 303 303 302 302 302 302 302 302 302 302 302 301 301 301 301 299 298 297 297 297 297 298 305 311 315 314 314 316 315 316 319 319 317 317 317 317 319 317 315 315 316 317 315 318 322 321 324 326 326 327 327
303 304 304 303 303 303 304 304 303 304 304 303 303 305 305 303 304 307 307 306 306 306 305 305 305 304 304 305 305 305 305 304 304 304 304 303 303 303 303 302 303 303 303 303 303 303 303 303 302 302 302 302 302 302 301 302 302 302 301 300 300 300 299 298 297 297 297 297 299 305 312 315 314 315 315 315 317 319 319 318 317 316 317 318 318 316 315 318 319 321 323 323 325 325 326 326 327
303 304 305 304 305 305 304 304 304 304 304 303 302 305 307 305 305 307 306 306 306 306 306 306 305 305 305 305 305 305 305 305 304 304 304 303 303 303 303 303 303 303 303 303 303 302 303 303 303 302 302 302 302 301 301 302 302 302 302 301 300 300 300 299 298 297 297 297 297 299 306 313 315 314 315 315 316 317 318 319 320 319 317 317 319 319 318 320 323 324 324 324 324 324 325 325 325
305 305 306 306 307 307 304 304 304 303 304 302 302 308 310 308 306 307 306 305 306 306 306 306 306 306 305 305 305 305 305 305 304 304 304 304 303 303 303 303 303 303 303 303 303 302 302 302 303 302 302 302 302 302 302 301 302 302 302 302 300 300 300 299 299 298 297 297 297 297 300 307 314 315 314 315 315 316 317 318 320 320 319 319 320 321 321 322 322 324 324 323 323 324 325 324 325
306 305 307 308 310 308 304 303 305 304 304 303 303 309 311 308 307 306 305 305 305 305 306 306 306 306 306 306 305 305 305 305 305 304 304 304 304 304 303 303 303 303 303 303 303 302 302 302 302 302 302 302 302 302 302 301 302 302 302 302 301 300 300 300 299 299 298 298 297 297 297 300 307 313 315 315 315 315 317 318 319 320 320 320 320 320 321 321 321 322 322 322 323 324 325 324 324
306 308 310 309 310 309 304 302 303 304 304 303 305 309 311 309 307 305 305 305 304 305 306 306 306 306 306 306 306 306 305 305 305 304 304 304 304 304 304 303 303 303 303 303 303 303 303 303 302 302 302 302 302 302 302 302 302 302 302 302 302 301 300 300 300 299 298 298 298 298 297 297 300 306 312 315 315 314 315 317 317 319 320 320 320 319 320 320 320 320 321 321 322 323 323 323 322
308 309 311 310 310 310 307 302 301 303 303 304 305 308 310 309 306 305 305 305 304 304 305 306 306 307 306 306 306 306 306 305 305 304 304 304 304 304 304 303 303 303 303 303 303 303 303 303 303 302 302 302 302 302 302 302 302 302 302 302 302 302 301 300 300 300 299 299 298 298 298 297 297 299 304 310 314 314 314 315 316 317 318 319 320 319 319 319 319 320 320 321 321 321 321 321 321
310 310 311 310 308 309 310 306 302 302 303 305 305 306 308 309 307 307 306 305 304 304 306 306 306 308 307 306 306 306 306 306 305 305 304 304 304 304 304 304 304 304 304 303 303 304 304 303 303 303 302 302 302 302 302 302 302 302 302 302 302 302 302 301 300 300 300 299 299 298 297 298 297 297 298 301 307 312 314 314 314 315 316 318 319 319 318 318 318 318 319 319 320 320 320 320 320
311 312 311 310 309 309 310 308 304 302 304 305 306 306 308 308 309 309 307 305 305 304 305 306 307 308 307 307 307 306 306 306 305 305 304 304 304 304 304 304 304 304 304 304 304 304 304 304 303 303 303 303 302 302 302 302 302 302 302 301 302 302 302 302 301 300 300 300 299 299 298 298 297 297 297 297 300 305 311 313 314 314 314 315 316 317 317 317 317 317 317 317 317 318 318 318 318
310 310 310 311 311 310 308 306 303 301 304 305 306 307 307 308 309 309 307 304 304 304 305 306 307 308 307 307 307 306 306 306 305 305 305 304 304 304 305 305 305 305 305 305 305 305 304 304 304 303 303 303 302 302 302 302 302 302 302 302 301 302 302 302 302 301 300 300 300 299 299 298 298 297 297 297 297 299 302 306 310 313 314 314 314 315 315 316 316 316 316 316 316 316 316 316 316
307 308 309 309 310 311 308 304 302 300 304 307 305 305 307 307 309 310 307 303 304 305 305 307 308 308 307 307 307 306 306 306 305 305 305 305 304 305 305 306 306 305 305 305 305 305 305 305 304 304 303 303 303 302 302 302 302 302 302 302 302 302 302 302 302 302 301 300 300 300 299 299 298 298 298 297 297 297 297 299 301 305 308 311 312 313 314 314 314 314 315 315 315 315 314 315 315
305 308 310 310 310 310 307 303 302 301 305 308 305 305 308 310 310 309 305 304 306 307 307 308 308 307 307 307 307 307 307 307 306 306 305 305 305 305 305 306 306 306 306 306 305 305 305 305 305 304 304 304 303 303 303 302 302 302 303 303 303 302 302 302 301 302 302 301 300 300 300 299 299 299 298 298 298 297 297 297 297 298 300 302 305 308 310 313 314 314 314 314 314 314 314 314 314
307 309 311 312 310 309 307 303 301 301 305 309 307 306 310 310 309 308 306 306 307 307 307 308 308 308 308 308 308 308 307 307 306 306 306 306 306 305 306 306 306 306 306 306 306 305 305 305 305 305 304 304 304 304 304 303 303 303 303 303 303 303 302 302 301 301 302 302 302 301 300 299 299 299 299 298 298 298 297 297 297 297 297 298 298 300 302 306 309 312 313 313 313 313 313 313 314
308 309 312 312 309 309 310 306 302 302 303 306 306 305 310 310 308 307 306 305 305 305 306 307 307 307 307 307 308 308 307 307 307 307 306 306 307 306 306 306 306 306 306 306 306 306 305 305 305 305 305 305 305 305 305 304 304 304 304 304 304 304 303 303 302 302 302 302 302 302 301 300 300 299 299 299 298 298 298 297 297 297 297 297 297 297 297 299 301 304 307 308 310 312 312 312 313
307 307 309 310 307 306 308 306 303 304 303 302 304 310 313 312 310 309 307 304 305 306 305 306 307 307 307 307 308 307 307 307 306 306 306 307 307 307 307 307 307 306 306 306 306 306 306 306 306 305 305 305 305 305 305 305 304 304 304 304 304 304 304 304 304 303 302 302 302 302 302 301 301 300 299 299 299 299 298 298 298 297 297 297 297 297 297 297 297 298 299 301 302 305 307 307 309
309 306 305 305 304 304 305 305 305 309 311 304 305 314 316 313 312 311 309 307 307 307 306 307 307 306 307 308 308 308 307 307 306 306 307 307 307 307 307 307 307 306 306 306 306 306 306 306 306 306 306 305 305 305 305 305 305 304 304 304 304 304 304 304 304 304 303 303 302 302 302 302 302 301 301 300 299 299 299 299 298 298 297 297 297 297 297 297 297 296 297 297 297 298 299 300 302
312 305 301 302 303 303 304 304 307 313 314 305 304 313 315 315 315 312 308 307 308 309 308 308 308 306 307 307 308 308 307 307 307 307 307 307 307 307 307 307 306 306 306 306 306 306 306 306 306 306 306 306 305 305 305 305 304 304 304 304 304 304 304 304 304 304 304 304 303 303 303 302 302 302 302 301 301 300 300 299 299 299 298 298 298 298 297 297 297 296 296 296 296 296 296 297 297
311 302 300 302 302 304 304 304 308 310 309 307 307 309 312 315 315 309 306 309 310 310 310 310 309 307 307 307 308 308 308 307 307 307 307 307 307 307 307 307 306 306 306 306 306 306 306 306 306 306 306 306 306 306 305 304 304 304 304 304 304 304 304 304 304 304 304 304 304 304 304 303 303 302 302 302 302 301 301 300 300 299 299 299 299 298 298 298 297 297 297 297 296 296 296 296 296
307 300 300 302 301 303 303 305 308 307 308 313 310 307 312 315 314 309 307 310 312 312 312 311 310 309 307 307 308 308 308 308 307 307 307 307 307 306 306 307 307 306 306 306 306 306 306 306 306 306 306 306 306 306 306 305 304 304 304 304 304 304 304 304 304 304 304 304 304 304 304 304 304 303 303 303 302 302 302 301 301 301 300 300 299 299 299 299 298 298 298 298 297 297 296 296 296
303 300 301 302 301 302 302 305 308 307 311 315 309 305 311 315 314 313 310 311 314 314 312 311 310 309 308 307 308 308 308 308 307 307 307 307 307 306 306 306 306 306 306 306 306 306 306 306 306 306 306 305 306 306 306 305 305 304 304 304 303 303 304 304 304 304 304 304 304 304 304 304 304 304 303 303 303 302 302 302 302 302 301 301 300 300 300 299 299 299 299 298 298 298 297 297 296
300 301 303 305 304 303 303 304 306 311 314 312 306 303 309 313 314 315 314 313 314 313 312 311 309 308 308 308 308 308 308 308 308 308 307 307 307 307 307 306 306 306 306 306 306 305 306 306 306 306 306 305 305 305 305 305 305 305 304 304 304 303 303 303 304 304 304 304 304 304 304 304 304 303 304 304 304 303 303 303 302 302 302 302 301 301 301 300 300 299 299 299 298 298 298 298 297
301 303 305 309 310 307 309 309 308 313 315 309 304 302 306 312 314 314 314 312 311 311 312 311 310 309 308 308 308 308 308 308 308 308 308 308 308 308 307 307 306 306 306 305 305 305 305 305 305 305 306 305 305 305 305 305 305 305 305 304 304 304 303 303 303 303 303 303 304 304 304 304 304 304 304 303 304 304 304 304 303 303 303 302 302 302 302 301 301 301 300 300 299 299 299 298 298
302 305 307 312 314 313 314 314 312 313 313 306 302 303 306 312 314 313 313 311 310 309 310 310 310 309 308 308 308 308 308 308 308 308 308 308 308 308 307 307 307 306 306 306 305 305 305 305 305 305 305 305 305 305 305 305 305 305 305 305 305 304 304 303 303 303 303 303 303 304 304 304 304 304 304 304 304 304 304 304 304 304 304 303 303 303 302 302 302 301 301 301 300 300 300 299 299
306 307 310 314 315 314 315 314 312 314 313 305 300 304 310 313 314 313 311 310 308 307 307 308 308 308 308 308 308 308 308 308 308 308 308 308 308 308 307 307 307 307 307 306 306 306 305 305 305 305 305 305 305 305 305 305 305 305 305 305 305 305 304 304 304 304 303 303 303 304 304 304 304 304 304 304 304 304 304 304 304 304 304 304 304 303 303 303 302 302 301 301 301 301 301 301 300
306 304 306 312 313 314 315 314 314 314 313 308 303 307 313 313 313 312 309 307 306 306 307 307 307 308 308 308 308 308 308 308 309 308 308 309 308 308 308 307 307 307 307 307 307 306 306 306 305 305 305 305 305 305 305 305 305 305 305 305 305 305 305 305 304 304 304 304 304 304 304 304 304 304 304 304 304 304 304 304 304 304 304 304 304 304 304 303 303 303 302 302 301 301 301 301 301
305 301 306 312 310 310 312 311 312 311 312 312 309 311 312 312 312 310 306 306 306 307 307 307 308 308 308 309 309 309 309 309 308 308 308 309 308 308 308 307 307 307 307 307 307 307 307 306 306 306 306 306 305 305 305 305 305 305 305 305 305 305 305 305 305 305 304 304 304 304 305 304 304 304 304 304 304 304 304 304 304 304 304 304 304 304 304 303 303 303 303 303 302 302 302 301 301
306 306 310 308 303 305 310 308 305 307 312 314 311 312 313 312 312 311 308 309 309 308 308 307 308 309 308 309 310 310 310 310 309 308 308 308 309 308 308 308 307 307 307 307 307 307 307 307 307 307 307 306 306 305 305 305 305 305 305 305 305 305 305 305 305 305 305 305 305 304 304 305 305 305 305 304 304 304 304 304 304 304 304 304 304 304 304 303 303 304 303 303 303 302 302 302 302
307 310 308 303 302 304 308 312 311 311 315 315 311 312 313 313 313 313 312 313 312 311 310 308 308 310 310 310 311 311 310 310 309 309 309 309 309 308 308 308 308 307 307 307 307 307 307 307 307 307 307 307 307 306 306 305 305 305 305 305 305 305 305 305 305 305 305 305 306 305 305 305 305 305 305 305 305 305 305 304 305 304 304 304 304 304 304 304 304 304 304 304 304 303 303 303 303
304 307 303 304 310 311 311 313 314 315 316 315 314 312 311 313 314 314 314 314 314 313 312 311 310 311 311 311 311 310 310 310 309 309 309 308 308 308 308 308 308 308 308 308 308 307 307 307 307 308 308 307 307 307 306 306 305 305 305 305 305 305 305 305 305 305 305 305 306 306 306 306 305 305 305 305 305 305 305 305 305 305 304 305 304 304 304 304 304 304 305 305 305 304 304 304 304
301 304 303 303 307 309 310 310 311 315 315 314 316 315 314 314 313 314 315 314 314 313 313 313 312 311 311 311 310 310 310 310 309 309 309 308 308 308 308 308 308 308 309 308 308 308 308 308 308 308 309 308 308 308 307 307 306 305 305 305 305 305 305 305 305 305 305 306 306 306 306 307 306 306 306 306 306 305 305 305 305 305 305 305 305 305 305 304 304 305 305 305 305 305 305 305 305
305 308 308 306 304 304 306 306 305 310 314 313 314 316 317 316 313 313 313 313 313 313 312 313 311 310 311 310 310 310 309 309 309 309 309 308 308 309 308 309 309 309 309 309 308 308 308 308 309 309 309 309 309 308 307 307 306 306 306 306 305 305 305 305 305 305 305 306 306 306 306 306 306 307 306 306 306 306 306 306 306 305 305 305 305 305 305 305 305 305 305 305 306 305 305 306 306
303 307 308 308 307 307 312 311 304 304 309 310 311 315 318 315 312 310 310 310 310 308 307 309 310 310 311 310 309 309 308 308 308 308 308 308 309 309 309 309 309 309 309 309 309 309 309 309 309 309 309 309 309 308 308 308 307 307 306 306 306 306 305 305 305 305 305 305 305 306 306 306 306 307 307 307 307 307 307 306 306 306 306 306 306 305 305 305 305 306 306 306 306 306 306 306 306
Wind_Speed
11 11 8 7 7 6 3 1 1 4 1 5 4 2 4 2 1 2 3 2 1 2 2 3 4 3 3 3 3 3 1 3 2 4 4 6 15 17 19 20 19 19 18 18 19 19 20 20 21 21 21 21 22 23 23 24 24 24 24 25 25 25 26 27 28 28 29 29 27 25 22 20 19 19 19 22 23 22 22 24 24 20 16 14 14 13 15 21 24 22 21 20 18 17 15 12 14
12 11 9 8 5 3 2 1 0 3 2 4 3 1 3 2 2 2 2 1 1 2 2 1 2 2 2 2 1 1 1 2 2 5 8 12 14 14 19 19 18 19 18 19 20 20 20 21 21 21 22 22 22 22 23 24 24 25 25 25 25 26 26 27 29 29 29 28 26 25 23 21 20 20 19 19 21 23 22 25 27 26 22 17 16 16 14 15 20 22 21 22 21 19 18 15 17
13 11 9 7 3 3 2 2 1 2 2 3 3 3 2 2 3 2 1 1 1 2 3 1 2 1 2 2 1 2 1 2 3 6 9 12 12 13 18 18 17 19 19 20 20 21 21 21 22 22 23 23 23 23 23 23 24 24 24 25 25 26 27 28 29 29 28 27 27 26 25 24 22 21 21 19 19 21 22 24 28 29 27 23 19 18 16 11 12 20 23 23 23 21 19 18 19
12 11 9 6 3 3 2 2 1 0 2 3 3 3 2 2 4 2 1 1 2 4 4 3 3 2 3 2 1 2 1 3 4 6 8 9 13 15 19 18 18 19 20 21 21 21 21 22 23 23 24 23 24 23 24 24 24 24 24 24 25 26 27 28 29 30 31 31 31 29 27 26 25 23 22 21 20 20 20 23 27 30 30 28 25 21 19 12 8 13 21 22 23 23 22 20 20
10 10 9 4 2 3 2 2 2 1 3 2 3 4 3 2 3 3 2 1 1 4 5 4 2 2 3 1 1 2 2 4 4 7 9 10 15 18 19 19 19 20 21 21 22 22 22 23 24 24 24 24 24 24 24 24 24 24 24 24 25 26 28 29 30 32 34 35 35 32 29 28 27 26 25 24 22 21 21 22 25 28 30 31 31 27 22 19 12 9 15 21 24 23 23 22 21
8 8 7 4 6 5 1 3 3 3 4 2 3 5 4 3 2 2 3 2 1 1 3 4 2 2 2 2 3 3 2 4 5 8 10 11 15 18 20 20 20 20 21 21 21 22 23 23 24 24 25 25 25 24 25 24 24 24 24 25 25 27 28 30 31 33 35 36 36 32 30 29 28 28 27 26 24 22 20 21 23 24 28 30 30 30 26 24 20 12 11 17 23 23 22 24 22
9 6 5 7 8 6 2 5 4 4 3 3 3 5 3 2 2 3 4 4 3 2 2 3 3 3 2 2 4 4 4 6 5 7 10 12 15 18 20 21 20 19 20 20 21 22 23 23 24 25 25 25 25 25 24 24 24 24 24 24 25 27 29 30 30 33 35 36 35 30 28 28 27 27 26 26 25 24 21 20 22 22 24 29 30 31 30 28 23 19 14 11 18 23 23 25 25
8 4 6 6 5 4 4 6 4 3 3 1 2 2 1 0 2 3 3 3 2 2 1 1 3 4 0 1 3 4 6 7 5 7 11 13 16 18 20 21 20 19 19 19 20 22 23 24 24 25 25 25 25 25 24 24 24 24 24 25 26 28 29 30 31 33 35 36 34 28 25 26 27 26 26 26 25 24 23 20 21 22 22 26 30 32 33 32 28 25 19 11 13 21 23 26 26
4 5 6 5 4 4 4 4 3 2 3 2 1 1 0 0 2 3 2 2 1 1 1 1 2 3 1 1 4 3 6 6 7 9 12 14 15 18 19 20 20 19 19 20 21 22 23 23 24 24 24 24 24 24 24 24 24 24 25 26 27 29 30 31 32 34 36 38 36 31 26 25 27 27 26 26 26 23 23 23 21 23 23 22 27 33 35 34 33 31 23 15 15 16 19 26 29
4 7 6 4 4 6 5 3 3 2 2 2 2 1 1 1 2 2 2 2 1 1 2 1 3 3 2 3 3 3 4 6 7 9 11 13 15 17 19 20 21 21 20 21 22 22 22 22 23 23 23 23 22 23 24 24 24 25 26 26 28 29 30 29 31 34 37 39 38 33 28 26 28 29 26 24 25 24 23 24 23 23 24 23 25 31 35 35 34 34 27 20 18 14 12 22 31
5 7 5 4 4 5 4 3 3 3 2 2 3 3 2 2 3 2 2 1 1 2 1 1 3 2 4 4 3 3 5 6 7 8 10 12 14 16 18 20 21 21 21 21 21 21 21 21 22 22 22 22 22 23 24 24 24 25 25 26 28 29 29 29 30 34 36 39 37 31 29 28 30 30 27 24 23 23 23 24 25 24 24 25 26 28 32 35 36 34 31 23 18 17 10 15 29
3 3 3 4 3 3 4 5 4 3 3 3 4 4 2 3 4 2 2 1 1 3 1 1 1 2 4 3 2 4 6 5 6 8 9 12 13 15 17 18 20 20 20 20 20 20 20 21 22 22 21 21 22 22 23 24 24 24 25 25 27 29 29 29 30 33 34 36 35 30 28 30 30 28 26 24 22 22 22 21 24 24 23 22 25 27 27 31 36 36 34 28 21 20 15 15 26
5 1 3 5 2 3 5 5 4 3 3 4 4 4 3 3 3 1 1 1 2 3 1 1 1 2 4 3 3 3 4 4 6 8 10 12 13 14 16 17 18 19 19 19 19 19 19 20 21 22 22 22 21 21 22 22 23 23 24 25 27 28 28 28 29 32 33 33 34 30 28 30 29 27 25 24 22 20 20 19 19 21 22 20 21 24 25 25 31 37 36 33 25 20 20 16 22
9 3 4 4 1 4 4 3 4 4 3 4 4 3 3 3 3 2 2 2 2 2 1 1 1 3 4 3 2 1 3 4 6 8 10 11 12 13 15 16 17 18 19 18 18 18 17 19 22 23 22 22 22 21 21 21 22 22 23 25 26 28 28 28 28 31 32 32 33 31 28 29 28 26 24 23 23 21 19 19 18 20 21 20 20 22 24 23 26 35 36 35 30 25 24 16 17
12 8 5 5 4 4 2 1 4 4 3 5 5 4 3 4 4 3 4 3 1 2 2 3 3 3 2 2 1 2 3 5 6 7 9 10 12 13 14 15 15 16 17 17 17 16 17 19 21 22 22 22 22 21 21 20 21 22 23 24 25 27 28 28 27 29 31 30 31 31 28 28 27 24 23 22 22 21 19 19 17 18 21 20 19 20 23 23 23 30 35 35 32 30 27 19 14
13 8 3 4 4 3 3 3 3 2 4 5 5 5 4 4 4 3 4 4 3 5 4 5 6 5 4 4 4 4 5 5 6 7 9 10 12 14 15 15 15 14 15 16 16 16 17 19 21 21 21 22 21 21 20 19 20 21 22 23 24 26 27 28 27 29 30 29 30 30 28 28 27 24 22 21 20 20 18 17 16 16 20 20 18 19 21 22 22 25 32 33 31 31 29 23 18
9 4 2 5 3 4 5 6 4 2 4 6 6 5 4 4 5 4 5 6 7 7 8 8 9 10 8 7 6 6 6 6 7 8 9 11 13 14 15 15 16 15 15 16 16 17 17 19 20 20 20 21 21 20 19 18 19 20 21 22 23 25 27 27 27 29 30 30 31 30 30 28 26 25 23 21 18 18 17 14 13 12 17 19 18 17 19 21 21 22 28 31 30 30 28 25 22
4 0 2 5 2 3 5 5 3 1 5 8 7 7 5 3 4 3 5 7 7 10 11 11 12 12 10 9 8 7 7 7 8 10 11 12 13 15 15 16 17 17 17 16 16 17 18 19 20 21 20 20 21 20 19 18 18 20 21 22 23 25 26 27 28 29 30 32 33 32 30 27 26 26 23 21 20 16 14 12 11 8 12 16 17 15 17 20 21 21 25 29 29 28 26 23 21
5 0 3 4 2 3 2 2 4 1 5 8 6 7 6 2 1 2 5 5 5 8 9 10 12 12 10 10 8 8 8 8 9 11 12 13 14 15 17 19 18 17 18 17 16 17 18 19 20 21 21 21 21 21 20 18 18 20 21 22 23 24 26 27 28 29 31 32 35 34 29 25 27 27 23 21 20 16 12 11 10 4 6 12 13 13 13 16 19 19 21 24 26 25 24 21 19
4 1 3 3 3 4 2 2 3 1 5 7 6 6 6 4 3 3 4 6 6 9 9 8 9 9 8 8 8 8 8 9 9 11 12 13 14 15 18 20 19 18 18 17 16 16 17 18 19 21 21 22 22 22 21 19 19 20 21 22 23 24 26 28 29 29 31 33 34 34 29 27 29 25 21 19 16 14 12 10 8 6 1 6 8 8 8 12 16 16 17 19 20 22 22 20 18
4 3 4 5 5 4 4 4 2 4 6 5 4 4 4 4 5 4 4 6 6 7 7 8 8 7 6 6 8 9 8 9 10 11 12 13 14 15 17 19 19 18 17 16 15 15 17 18 19 20 21 22 23 23 22 20 19 19 20 22 23 24 26 28 29 29 30 33 33 32 29 30 32 25 20 17 14 14 14 14 12 10 5 3 5 5 5 8 12 13 14 15 17 19 20 18 18
7 4 4 7 5 3 5 4 4 7 6 4 3 3 3 2 5 6 6 7 5 4 5 7 8 8 7 8 9 9 8 9 10 11 12 14 14 15 17 19 19 18 16 16 15 15 15 17 18 20 21 21 22 23 22 20 19 19 20 22 23 24 26 27 29 29 29 31 32 31 28 28 31 29 24 18 17 18 19 20 18 14 10 7 7 6 4 6 9 11 12 14 15 15 14 14 16
6 3 3 5 2 4 8 6 6 7 4 3 2 3 3 3 5 6 9 13 11 10 10 11 10 9 10 10 9 9 9 10 11 11 13 14 14 14 16 19 19 18 16 16 15 15 15 16 17 19 20 21 21 22 22 21 19 19 19 21 23 24 25 26 28 29 29 30 31 31 29 27 28 30 28 22 21 23 22 22 22 19 15 12 10 8 5 4 7 9 9 11 12 10 10 12 15
7 6 3 4 4 6 9 6 6 5 2 1 3 5 4 4 5 6 11 15 12 12 12 11 11 10 10 10 10 10 10 11 11 12 13 14 14 14 15 18 19 17 16 15 15 14 14 14 16 17 19 20 20 22 22 21 20 19 19 20 22 23 24 25 27 29 29 29 30 31 30 28 26 26 28 26 23 22 22 22 23 20 17 15 12 9 7 4 3 6 7 8 9 8 9 12 15
9 7 5 6 6 6 8 6 4 3 1 1 4 6 5 6 7 10 15 15 9 10 10 8 9 9 9 9 9 10 11 11 12 13 13 13 13 13 15 17 18 16 15 14 13 13 13 13 15 16 17 18 19 20 21 21 20 19 19 19 20 22 23 24 25 27 28 28 28 29 30 29 27 24 25 28 25 20 20 21 21 21 18 15 13 10 10 8 6 6 7 8 8 8 10 10 12
6 8 8 7 6 5 6 5 3 2 2 3 5 6 5 6 8 10 14 12 10 10 9 8 8 8 8 9 9 10 11 12 12 13 12 12 13 13 14 16 17 16 14 13 12 12 12 12 13 14 15 17 18 19 20 21 20 19 19 18 19 21 22 23 24 25 27 27 27 28 30 30 29 25 22 24 26 20 18 19 19 20 19 17 14 12 11 10 8 6 7 7 8 10 11 9 9
11 12 11 9 7 5 4 4 4 3 2 3 5 7 4 4 4 5 4 4 9 9 7 8 8 8 8 8 9 10 10 11 12 12 11 11 13 13 13 15 16 15 14 12 12 12 12 11 12 13 14 15 16 18 19 20 20 19 19 19 18 19 20 21 23 24 25 26 27 27 28 30 30 28 23 21 23 20 17 18 18 18 18 18 14 10 9 9 9 7 6 7 9 12 12 12 12
15 12 11 9 6 6 4 2 4 4 1 3 5 9 6 1 2 8 7 5 7 7 7 8 8 8 8 8 8 9 9 10 11 12 11 12 12 13 13 14 16 15 14 12 11 11 11 11 11 12 13 13 15 16 18 19 20 19 19 19 18 19 19 19 21 22 23 24 26 27 27 28 29 29 26 21 20 19 17 16 16 17 16 15 12 11 10 9 10 9 6 6 8 10 11 13 14
10 6 5 5 4 4 5 3 5 4 1 5 6 8 5 6 7 8 7 9 9 9 9 8 8 9 9 9 8 8 8 9 11 12 11 12 12 13 12 13 15 15 14 13 12 12 12 12 11 12 12 12 14 14 16 17 19 19 19 19 18 18 18 18 19 20 22 23 24 25 25 26 26 27 28 24 19 16 15 14 15 16 15 14 13 12 12 10 9 6 5 6 7 8 9 10 10
7 2 1 3 4 2 5 4 5 1 2 6 5 4 1 5 9 7 4 7 8 10 10 9 10 10 9 10 9 9 8 8 10 11 11 12 12 12 12 12 14 15 14 14 13 13 13 13 12 12 12 12 13 14 15 16 17 18 19 19 19 18 18 17 18 18 20 21 22 23 23 23 23 24 26 26 22 17 14 14 15 15 14 14 13 12 11 10 8 5 5 6 7 8 10 11 9
3 0 0 1 1 2 5 6 6 1 3 7 4 4 1 2 1 6 8 8 8 10 10 11 12 12 12 11 11 11 9 8 9 11 11 11 11 12 11 11 13 15 15 14 14 14 13 14 14 13 12 12 13 13 14 15 16 17 18 19 18 18 17 17 17 17 18 19 20 21 21 21 21 21 22 24 24 21 16 14 13 13 12 11 12 14 13 12 11 9 8 8 7 7 9 10 10
1 1 1 1 1 2 4 6 8 3 2 5 3 4 4 3 2 4 7 7 8 9 10 11 13 13 14 13 13 12 11 9 9 10 11 11 11 11 11 11 13 14 15 15 15 15 14 15 15 14 13 13 13 13 14 14 15 16 17 18 18 17 17 16 16 17 17 17 18 19 19 20 19 19 20 21 22 23 20 17 13 11 11 10 11 15 15 14 15 14 12 11 10 10 10 9 9
1 2 1 1 1 1 2 3 6 5 3 3 2 3 5 2 1 3 5 7 7 9 12 14 16 15 13 13 14 13 12 10 9 9 11 11 11 11 11 12 13 14 15 15 15 15 15 15 15 14 14 14 14 13 13 14 15 16 17 17 17 17 17 16 16 16 17 16 17 17 18 18 18 18 19 19 20 21 21 20 17 14 11 9 8 11 14 15 15 14 13 13 12 12 11 10 9
2 1 1 0 1 1 1 2 3 6 2 2 2 5 10 7 5 7 8 11 12 13 15 16 17 14 11 12 13 13 12 12 9 8 9 11 10 11 12 13 13 14 15 15 16 16 16 16 15 15 15 15 15 14 13 13 14 14 15 17 17 17 17 17 17 16 16 16 16 16 16 16 17 17 18 18 18 18 19 20 20 18 15 11 7 7 10 12 13 13 13 13 12 12 12 11 10
2 2 1 1 1 2 2 0 3 6 2 4 4 7 12 12 11 11 9 11 13 14 15 16 14 11 9 10 10 11 12 11 9 8 10 10 10 11 12 13 13 14 15 15 16 17 17 17 17 16 16 15 15 15 14 14 14 14 14 15 17 17 18 17 17 16 16 16 16 15 15 15 15 16 17 17 17 16 17 17 18 18 17 15 11 8 8 8 9 10 10 11 11 11 11 11 10
2 2 1 2 2 2 1 1 3 5 4 5 6 7 10 12 11 9 6 7 9 11 13 13 10 7 7 8 8 9 10 10 8 9 10 10 10 11 11 12 13 14 14 15 16 17 17 17 18 17 17 17 16 16 15 15 15 14 14 14 14 16 17 17 17 17 16 16 15 15 14 14 14 14 15 15 16 15 15 15 15 15 16 15 14 12 11 9 9 8 8 9 9 9 9 8 8
2 1 0 0 3 2 0 0 2 2 5 4 4 7 12 13 12 8 4 6 8 9 10 9 7 6 7 7 7 8 9 10 8 8 10 10 11 11 11 12 13 14 14 14 15 16 17 18 18 18 18 18 18 17 16 16 16 15 15 15 14 14 15 16 17 17 17 16 16 15 14 13 12 13 13 13 14 14 14 14 13 13 13 13 13 13 12 11 10 10 9 9 8 7 7 7 8
1 1 1 1 2 1 1 1 1 2 3 2 2 8 13 12 9 5 4 6 7 10 9 8 9 8 7 7 8 8 8 8 8 8 9 10 11 11 12 13 14 14 14 14 14 15 16 17 18 17 17 18 18 18 17 16 16 16 16 16 16 15 15 15 15 16 16 16 16 15 14 13 12 11 11 11 12 12 12 12 12 12 12 11 12 12 12 11 11 10 9 9 8 7 7 7 8
0 0 2 0 1 3 2 1 1 1 2 2 3 8 11 9 6 5 6 6 6 9 11 11 12 11 9 8 7 7 6 6 6 7 8 9 10 11 12 12 13 13 12 13 13 14 15 16 16 16 16 16 17 17 16 16 16 16 16 16 17 16 15 15 14 15 15 16 15 15 15 14 13 12 11 10 10 10 10 10 10 10 11 10 10 10 10 9 9 8 8 8 7 7 6 6 7
1 1 2 1 3 3 1 2 1 3 1 4 7 7 8 5 3 3 4 4 5 6 9 9 10 10 8 7 7 7 6 5 6 6 7 8 8 9 10 11 12 12 12 12 13 13 15 15 15 15 14 15 16 16 15 14 14 15 15 16 16 16 15 14 14 13 14 14 14 14 14 14 13 12 12 11 10 10 9 9 9 9 9 9 9 9 9 8 8 7 7 7 6 5 4 4 4
1 2 2 2 3 4 3 3 6 4 2 3 8 6 4 1 2 3 1 2 5 5 7 8 9 9 7 6 7 8 7 7 6 6 6 7 8 8 9 10 11 11 12 13 13 13 14 14 15 14 14 14 16 16 15 14 13 13 14 14 14 14 14 13 13 12 11 11 11 11 11 12 12 12 12 12 11 11 10 9 9 8 8 8 8 8 7 7 7 7 7 6 6 4 3 3 2
1 0 1 2 3 4 6 7 6 3 3 1 5 3 2 2 3 3 1 2 4 4 6 8 9 9 8 7 7 8 8 8 7 6 7 8 8 8 9 10 11 11 11 12 12 12 13 13 14 15 15 15 15 16 15 14 13 13 13 13 13 13 12 12 12 12 11 10 10 10 10 9 10 11 11 12 12 11 11 10 10 9 8 8 7 7 6 6 6 6 6 6 5 5 4 3 3
0 0 1 0 2 4 5 6 4 2 0 2 3 3 2 0 2 1 2 3 6 5 7 9 10 11 10 8 8 8 8 8 8 8 8 9 8 8 9 10 12 12 12 12 12 12 12 13 14 15 15 15 16 16 15 14 14 14 14 13 13 13 13 12 12 12 12 12 11 11 11 10 9 9 10 10 11 11 11 11 10 10 9 9 8 7 7 6 6 5 5 4 4 4 3 3 3
1 1 0 1 2 3 3 4 3 1 2 2 2 3 3 2 1 2 3 4 6 7 8 10 12 14 13 11 9 8 8 9 9 9 9 9 9 9 10 10 11 12 12 12 12 12 12 12 13 14 15 15 16 16 16 15 15 14 14 14 14 13 13 13 13 13 13 13 12 12 12 11 10 9 9 9 9 10 10 10 10 10 10 10 9 9 8 7 6 6 5 4 3 3 3 2 3
1 2 0 1 2 1 1 3 2 1 2 2 3 4 3 2 1 2 1 3 6 6 6 7 10 14 14 13 10 8 8 8 9 9 10 10 10 11 12 11 11 11 12 11 11 12 12 12 12 13 14 15 15 16 16 16 16 15 15 15 14 14 14 14 13 13 13 13 13 13 13 13 12 10 9 9 8 9 9 9 9 10 10 10 9 9 9 8 8 7 7 6 5 5 4 4 5
2 2 1 1 1 0 1 3 1 1 3 1 4 6 3 2 1 2 1 2 4 3 2 3 6 12 15 14 11 9 8 8 9 10 11 11 12 13 14 14 13 12 12 12 11 12 12 12 12 12 12 14 15 16 16 16 16 16 16 16 16 15 14 15 14 13 13 14 14 13 13 13 13 13 11 10 9 8 8 8 8 9 9 9 10 10 9 9 9 9 9 9 8 8 7 7 7
1 2 2 2 2 1 1 1 1 2 2 2 3 5 4 2 0 1 1 1 1 1 1 2 5 10 14 15 12 10 8 8 9 10 11 12 13 15 16 17 16 15 14 14 13 13 13 13 13 12 11 13 15 16 16 16 16 17 17 17 17 16 15 16 15 14 14 15 15 14 14 14 14 14 14 12 11 9 8 8 8 8 8 8 9 9 10 10 10 10 10 10 10 10 10 10 10
1 2 2 2 2 2 2 2 1 2 0 3 1 4 3 3 0 1 1 1 3 3 2 2 5 8 13 15 14 12 11 11 11 11 11 12 14 15 16 17 18 18 18 17 16 15 15 15 15 14 12 12 15 16 17 17 17 17 17 17 17 16 16 16 16 15 14 15 15 15 15 14 14 14 15 15 14 12 10 9 9 8 8 9 9 9 9 10 10 10 11 11 11 12 12 12 12
2 2 2 2 1 1 1 1 1 2 1 3 0 2 2 5 3 2 3 3 4 5 4 3 3 7 11 14 15 15 14 14 13 13 13 14 15 16 17 18 18 19 19 19 19 18 17 17 17 17 15 13 15 16 17 17 17 17 18 18 17 17 17 17 17 16 15 16 16 16 15 15 15 15 15 16 17 16 13 11 10 9 10 10 10 10 10 10 10 11 11 11 11 12 13 13 14
1 1 2 2 1 1 1 1 1 2 1 2 0 3 2 4 3 3 4 3 2 5 8 8 8 9 12 14 16 17 18 17 15 14 14 15 17 18 19 20 20 20 19 20 20 21 20 19 19 20 18 15 16 16 17 17 17 18 18 18 18 18 18 17 17 16 16 16 17 17 16 15 15 16 16 17 18 18 17 15 13 12 12 12 12 12 11 12 12 12 12 12 12 12 13 13 14
0 1 2 2 2 2 2 2 2 3 2 0 1 2 1 1 1 1 4 7 8 9 10 10 12 12 13 15 17 19 20 19 17 16 15 16 17 18 19 20 21 21 20 20 20 21 22 22 22 22 21 18 18 18 18 17 17 18 19 18 18 18 19 19 18 17 17 17 17 17 16 16 16 16 16 17 18 19 19 18 17 15 15 14 14 14 14 14 14 14 14 14 13 14 14 14 14
1 1 2 1 2 2 1 1 1 2 3 1 1 2 2 2 2 2 4 8 11 12 12 12 14 13 13 15 17 18 18 19 19 18 18 17 17 18 19 20 21 22 21 20 19 20 21 22 22 22 22 21 20 20 19 19 18 18 19 19 19 19 20 20 20 19 19 19 19 18 17 17 17 17 17 18 19 19 19 19 19 18 17 17 17 16 16 16 16 16 16 15 15 15 16 16 16
0 1 0 1 1 0 1 1 0 1 2 1 1 3 4 2 2 2 2 4 5 7 9 13 16 15 15 16 15 14 14 15 17 18 19 19 19 20 21 22 22 23 22 21 20 20 20 21 21 21 21 21 20 20 21 21 20 19 19 19 20 20 20 21 21 21 21 22 21 20 19 19 18 18 18 18 19 19 19 20 19 19 19 19 19 18 18 18 18 18 18 17 17 16 17 18 18
1 0 2 2 1 0 0 1 0 0 2 1 1 3 5 2 0 0 1 2 3 3 4 8 13 14 14 14 13 12 13 14 15 16 18 20 21 22 23 24 25 24 24 22 21 20 20 20 20 21 21 20 20 20 21 22 21 21 20 19 20 21 21 22 22 22 23 24 24 23 22 21 20 20 20 20 20 20 19 20 20 20 20 20 20 20 20 19 19 20 19 19 18 18 19 19 19
1 2 2 1 1 0 0 1 1 2 3 3 1 3 4 3 1 1 2 3 4 3 1 4 7 9 11 12 12 13 14 16 16 17 18 19 21 23 24 26 26 25 24 23 22 21 20 20 20 21 21 20 20 21 21 22 22 22 21 20 20 21 22 23 23 23 24 25 25 25 25 24 23 22 22 22 21 21 20 20 20 20 20 21 21 21 21 21 21 21 20 19 19 19 20 20 20
1 2 1 0 1 2 2 1 1 2 2 3 3 3 2 4 3 2 3 4 3 2 2 3 5 8 10 11 13 16 18 19 20 20 21 22 23 24 25 26 25 24 23 22 22 21 21 20 20 21 21 21 21 21 21 22 22 23 23 22 21 21 22 23 23 24 25 26 26 26 27 27 26 25 24 23 23 22 22 21 21 21 21 22 22 22 22 22 22 22 21 20 20 20 21 21 20
2 2 1 1 1 0 0 1 0 2 2 2 2 4 4 2 2 4 4 1 1 2 2 4 8 11 11 14 18 21 23 23 23 23 24 24 25 25 25 24 24 23 22 21 21 21 21 20 20 21 21 21 21 21 21 21 22 23 24 25 24 23 24 24 24 25 26 26 26 26 27 28 29 29 28 26 25 24 23 23 23 23 23 23 23 23 23 23 24 23 23 22 21 21 21 21 21
2 1 0 1 1 0 1 0 1 1 2 1 1 5 6 1 1 4 4 1 1 3 3 6 11 13 15 20 23 23 24 24 23 23 23 24 24 23 23 22 22 21 20 20 20 21 21 21 21 21 22 22 21 21 21 22 22 24 25 25 26 26 26 27 27 27 27 26 26 26 27 28 29 30 30 29 28 27 26 25 25 25 25 24 24 24 24 25 25 25 25 24 23 23 23 23 22
Wind_Direction
158 156 152 145 137 147 146 253 86 58 72 91 83 142 87 52 81 120 126 144 173 102 54 21 17 0 3 26 37 46 16 353 351 322 341 322 321 332 334 333 334 336 340 342 344 346 346 345 345 342 340 339 337 337 335 334 333 332 332 332 332 332 332 331 331 331 330 328 325 318 310 304 301 293 284 278 272 263 251 249 249 248 252 256 252 257 260 250 242 237 234 228 222 217 219 222 223
153 151 152 152 146 162 127 344 201 108 117 104 88 68 88 134 158 102 83 76 43 101 154 30 37 58 50 82 68 193 129 12 285 304 312 317 332 337 333 338 341 343 346 347 349 349 349 349 346 344 342 341 340 339 337 335 334 333 332 332 332 333 332 332 333 332 331 331 329 325 317 309 304 300 293 286 277 270 259 246 243 244 245 247 245 248 254 257 249 239 237 234 226 218 214 215 216
150 155 159 160 154 135 104 13 88 139 127 102 106 92 106 159 122 90 71 334 341 208 208 281 271 260 276 222 259 275 13 1 287 300 309 326 340 332 336 346 347 348 348 349 351 349 350 350 347 346 344 343 342 340 338 337 335 334 333 333 333 333 334 334 334 333 333 331 328 326 322 314 308 302 293 286 281 276 271 257 244 239 238 241 245 245 246 259 260 241 237 234 227 221 215 215 216
149 157 155 155 144 95 61 19 34 46 111 101 115 124 161 148 117 119 105 298 278 227 221 272 259 222 273 280 343 273 308 340 305 311 314 326 334 337 347 352 350 351 349 350 350 349 350 349 348 347 345 344 343 341 341 340 338 336 335 334 334 335 336 336 334 333 331 329 328 324 319 315 309 304 295 285 279 279 276 265 251 244 238 234 239 242 239 244 269 252 239 237 232 225 219 215 220
149 158 161 177 153 67 56 88 36 21 91 82 116 135 163 149 138 156 159 214 277 228 227 264 262 217 260 284 306 274 333 326 305 322 327 327 336 346 353 354 354 351 349 350 348 348 349 349 349 347 347 346 344 344 342 342 340 339 337 336 336 337 338 336 335 334 332 331 329 326 320 314 309 305 300 290 279 276 275 268 255 249 246 236 232 237 236 234 243 254 240 238 237 229 221 216 219
142 156 158 139 87 70 111 104 72 70 66 2 104 132 160 159 174 200 209 198 178 217 221 240 262 280 241 217 245 251 322 325 314 325 331 332 342 351 354 356 355 350 348 348 347 348 349 350 350 349 349 348 347 346 343 342 341 340 339 338 338 338 338 337 337 335 334 331 328 327 322 316 312 308 303 294 283 275 276 276 260 249 253 244 232 235 235 232 233 231 231 239 239 232 224 219 216
134 142 118 102 69 49 76 90 87 85 76 345 70 121 142 152 221 235 221 204 186 171 183 219 256 273 231 244 262 238 289 333 330 323 335 341 348 354 354 355 355 351 347 346 348 349 350 351 351 351 350 349 348 346 344 343 343 342 341 339 339 338 338 338 337 336 334 332 329 326 323 320 317 313 308 299 287 276 275 279 269 255 253 247 235 235 234 231 233 224 218 232 238 233 228 222 216
138 127 89 94 57 40 76 87 84 61 98 349 19 103 97 137 238 231 216 214 195 170 192 259 251 253 176 318 270 261 302 336 338 331 345 350 353 355 354 353 353 351 345 346 349 350 352 352 351 350 348 348 347 345 344 344 345 343 342 341 339 339 340 340 338 336 335 334 333 330 326 323 321 317 313 305 292 279 272 272 271 262 254 246 237 236 233 230 231 227 221 217 229 233 231 224 218
128 108 90 88 81 85 81 85 90 56 115 152 200 138 5 253 221 227 209 206 212 200 235 337 240 257 24 268 265 286 307 330 345 347 351 353 352 354 354 351 352 350 346 348 350 352 352 351 350 347 345 345 345 345 345 346 346 344 343 342 340 342 342 341 339 338 339 340 337 333 331 327 326 321 312 306 296 283 271 267 267 263 256 249 239 236 234 228 228 231 230 220 220 229 234 226 217
76 87 97 87 100 108 102 103 105 100 131 161 209 186 212 208 205 225 211 173 182 225 255 261 231 266 325 287 281 286 307 331 350 354 348 349 351 353 354 350 351 351 349 349 350 352 350 349 347 345 343 343 344 345 346 347 346 345 344 343 342 344 342 341 340 342 344 343 337 333 335 333 330 324 313 304 296 286 273 264 262 259 256 250 240 236 233 228 226 229 227 218 215 218 238 230 217
75 78 99 100 108 116 119 131 127 133 147 203 216 201 210 221 222 211 208 166 153 222 278 268 218 241 275 283 280 285 322 340 353 354 344 345 349 352 353 351 352 351 350 348 348 349 347 346 345 344 344 345 347 346 347 348 347 345 344 343 343 344 342 341 342 344 345 343 339 334 334 335 333 328 318 305 295 287 276 264 260 258 257 253 246 240 235 228 226 228 223 217 214 211 230 232 219
111 80 97 98 99 100 118 132 135 147 174 213 187 179 209 221 223 196 193 176 176 219 207 255 245 238 262 285 264 296 331 343 351 351 346 347 349 350 353 352 352 351 346 344 344 345 344 344 345 347 348 349 349 347 347 348 347 345 344 344 345 345 343 341 342 344 345 344 343 338 333 334 332 330 326 315 300 288 281 270 263 262 262 257 251 246 240 232 227 228 226 223 220 212 219 223 216
121 139 104 94 65 105 126 127 135 165 184 205 173 168 206 206 221 179 187 201 201 225 179 211 293 248 260 292 275 299 325 333 352 354 351 349 348 348 351 352 351 348 343 341 341 342 342 343 347 350 351 352 351 349 348 348 347 345 344 346 347 347 344 342 342 343 344 345 344 341 335 331 328 327 329 324 311 295 283 275 264 263 263 257 253 249 246 239 229 228 230 229 226 219 225 223 206
117 93 82 105 124 122 129 119 150 191 160 166 162 175 205 206 218 186 224 229 189 222 225 265 271 240 259 272 262 326 321 332 354 356 355 349 346 346 346 351 350 345 341 338 337 339 341 346 351 353 353 352 351 349 348 348 347 345 345 348 349 347 344 344 343 344 346 347 346 344 336 328 323 319 320 323 318 304 286 276 264 257 260 255 250 250 249 246 231 226 229 232 229 225 232 235 204
113 90 79 114 133 133 166 140 158 197 144 151 170 178 203 213 213 210 246 254 215 256 281 270 237 227 269 275 331 1 311 328 346 347 350 345 345 346 345 347 348 344 339 335 334 339 343 350 354 354 354 352 351 349 347 348 347 345 347 349 350 347 346 346 345 347 349 352 351 347 338 332 329 320 314 318 318 312 295 278 265 252 255 255 246 246 249 250 241 226 226 232 233 231 233 240 221
103 97 101 113 142 155 176 168 164 188 141 157 170 175 197 203 212 223 239 254 262 268 269 251 236 244 266 270 299 309 295 315 328 333 338 338 342 346 346 344 344 345 342 336 334 340 347 352 356 356 355 352 351 349 348 349 347 346 348 350 351 349 349 348 348 351 354 356 356 350 340 335 336 332 324 321 318 316 309 289 272 251 247 251 243 240 246 250 249 231 223 228 234 236 233 238 238
91 101 107 105 143 159 168 179 173 135 129 159 171 186 204 191 212 242 257 264 264 263 260 253 251 256 263 264 275 284 291 310 317 327 333 336 338 340 342 339 341 345 347 343 336 341 349 353 356 356 356 354 352 351 350 350 347 347 348 352 352 351 352 351 352 357 358 358 1 353 342 341 342 337 332 332 327 317 316 306 286 254 238 246 242 234 240 246 246 233 222 222 229 237 235 236 240
74 96 91 109 148 138 159 173 155 107 139 163 175 191 213 188 197 252 275 259 257 265 262 261 265 266 267 268 273 282 293 306 314 325 332 336 336 336 339 337 341 346 349 348 339 340 348 353 355 355 356 356 355 354 353 351 349 351 351 353 355 355 355 355 357 1 1 2 7 360 351 354 353 346 339 339 338 331 328 321 307 271 232 237 238 229 233 240 240 231 222 219 222 232 238 236 238
57 53 95 107 130 101 107 133 141 163 138 154 169 191 219 234 194 262 273 252 258 273 265 260 266 269 268 268 274 283 293 306 315 323 327 331 333 336 341 341 343 345 348 349 341 338 345 351 354 354 354 356 358 357 356 354 353 354 354 355 359 358 358 0 2 5 4 5 12 9 0 358 356 354 349 343 341 346 345 330 330 324 230 229 231 225 227 238 239 231 224 221 219 223 231 231 233
38 33 94 106 122 103 123 154 157 182 136 152 168 195 228 251 252 263 281 282 270 266 266 259 262 268 267 264 270 281 296 311 317 320 322 327 332 334 341 343 343 344 345 347 342 337 343 349 352 353 352 356 360 359 357 356 356 356 356 358 1 1 1 4 5 7 8 8 14 14 4 357 358 1 358 356 353 355 358 356 12 34 50 218 216 210 218 236 238 228 221 221 215 212 217 220 225
41 19 78 122 146 122 142 172 178 156 145 155 171 196 230 248 258 257 278 291 272 259 266 262 267 278 274 263 267 281 300 311 314 316 318 323 329 333 339 342 342 342 343 345 343 336 339 347 351 352 351 355 359 1 359 356 357 357 358 0 3 4 4 5 7 9 10 11 14 14 8 2 6 11 9 10 14 17 24 30 42 56 70 142 163 161 190 227 235 224 212 209 205 201 205 211 221
72 21 58 111 146 121 133 159 147 144 140 151 173 212 251 270 265 257 253 262 270 294 292 276 279 279 269 265 269 282 295 305 311 313 315 319 325 331 337 342 342 342 342 344 343 335 337 344 349 351 351 354 358 0 0 358 358 358 359 1 3 6 6 7 8 10 11 13 14 14 12 9 7 10 14 21 28 35 41 43 49 62 75 97 112 119 155 206 224 216 204 198 194 193 197 203 214
95 69 68 107 122 107 131 140 130 134 133 154 201 266 279 291 274 264 253 252 264 288 293 288 286 275 269 273 279 286 292 300 308 311 313 315 321 328 335 340 342 341 341 344 342 335 336 343 347 350 350 352 356 358 0 360 359 359 359 1 3 6 7 8 9 11 12 14 16 14 14 14 9 7 14 26 34 38 47 54 56 61 67 76 87 93 112 182 219 205 189 185 183 180 187 197 209
95 111 113 115 99 110 132 134 126 129 131 181 278 284 281 294 291 288 269 265 274 284 283 283 282 278 278 282 288 293 295 299 306 310 311 312 318 326 331 337 341 340 341 344 342 335 334 341 346 348 348 350 354 356 359 1 0 360 360 1 3 4 7 10 10 12 14 15 17 16 16 16 13 9 13 24 34 40 47 55 59 60 63 67 77 88 102 123 190 180 163 158 163 169 183 197 208
66 110 132 113 98 113 128 122 117 118 88 301 292 284 287 298 295 285 276 278 284 278 277 282 285 284 286 290 294 295 296 300 306 308 308 310 315 323 328 332 338 338 338 342 341 336 335 340 344 346 347 349 351 354 357 0 1 0 360 1 3 4 6 10 11 13 15 16 16 17 19 20 17 15 18 24 30 39 45 47 51 56 63 71 78 89 101 108 111 134 147 144 152 170 187 197 206
65 110 127 117 100 106 119 108 78 63 343 323 293 282 291 307 301 281 277 274 260 264 276 283 286 289 293 298 300 298 299 303 306 305 308 312 313 320 324 326 334 336 336 339 340 339 338 339 342 345 345 347 348 351 354 357 1 1 1 1 2 3 5 8 11 14 16 17 17 16 19 22 23 21 24 31 30 32 40 44 49 54 63 74 83 90 96 110 121 130 140 145 159 170 180 184 189
108 109 105 100 97 94 104 103 44 12 320 323 296 288 293 320 313 272 283 261 239 256 273 280 285 291 298 301 302 302 304 305 303 302 307 310 309 315 319 322 328 333 333 336 339 340 341 340 341 343 342 345 347 348 350 353 358 1 1 1 1 2 3 6 11 15 17 18 18 18 19 21 26 25 24 33 36 34 37 44 51 59 70 75 81 89 89 109 116 111 129 155 171 169 171 171 171
113 112 101 84 89 82 67 88 17 359 320 352 312 289 275 217 253 251 258 247 241 258 265 277 287 292 299 300 303 304 305 304 300 300 303 305 303 307 314 318 324 330 331 333 337 339 342 344 341 341 340 342 345 346 347 349 353 358 2 2 1 360 359 4 10 15 17 20 20 20 21 20 24 28 28 31 38 41 41 40 44 57 71 69 71 80 82 101 105 99 114 142 160 162 167 170 171
109 106 104 89 120 91 47 35 3 3 348 355 324 286 243 186 220 248 258 248 248 258 262 275 284 290 295 292 296 299 304 303 300 302 301 301 300 304 311 315 321 328 330 330 335 338 341 345 343 340 340 341 343 343 345 347 349 355 0 2 2 359 356 0 8 13 17 21 22 23 24 23 22 26 31 34 36 41 45 44 42 48 58 57 58 72 79 87 95 104 119 119 122 129 142 149 160
101 57 69 120 166 125 40 12 352 27 51 5 333 296 140 180 221 232 252 249 251 258 263 273 276 285 287 286 291 290 300 302 302 306 300 300 299 301 309 312 318 325 329 330 334 338 339 343 344 341 343 344 343 342 343 344 347 351 357 0 1 359 355 356 4 12 15 19 23 25 27 28 26 25 29 35 39 40 43 48 48 45 50 53 53 61 73 82 91 110 122 121 117 112 116 118 127
99 319 272 126 214 123 61 18 357 48 46 6 326 275 1 57 221 231 248 256 260 263 266 273 276 281 282 282 287 286 293 298 304 308 298 298 299 300 307 312 317 322 327 331 333 338 339 339 341 342 345 347 345 344 343 343 345 348 353 358 359 358 356 354 0 8 13 17 20 25 29 31 31 30 29 32 38 42 46 52 54 48 45 49 56 61 70 81 89 93 93 103 115 114 111 110 120
69 263 147 112 294 106 87 37 21 20 351 340 303 273 298 354 25 225 244 255 256 263 265 272 281 284 281 277 278 281 284 290 301 304 299 303 305 303 307 312 316 319 324 329 332 336 338 337 337 340 344 348 348 345 344 343 343 345 350 354 355 356 357 356 359 4 9 15 17 21 27 32 34 36 35 34 35 39 46 54 60 58 50 49 62 71 78 85 87 88 88 91 97 101 102 105 117
93 304 50 95 309 49 113 86 35 4 322 301 252 278 301 332 89 201 244 263 258 269 271 276 287 288 281 273 271 276 280 283 291 294 299 305 306 304 307 313 315 316 320 324 329 333 334 334 334 338 341 344 346 346 346 345 343 344 346 350 351 353 356 359 0 1 4 10 15 17 21 28 34 38 39 40 38 36 41 49 56 61 62 62 72 81 86 91 92 93 95 95 96 96 98 103 111
110 329 66 74 261 299 314 130 34 355 303 269 226 253 273 267 266 264 267 274 264 267 274 278 287 285 278 273 270 274 277 281 284 284 294 300 302 304 308 312 314 315 318 321 325 328 331 331 331 335 338 339 342 343 346 348 347 345 344 346 347 350 354 358 1 360 0 4 8 13 17 22 30 37 40 41 42 40 38 43 49 55 62 69 80 87 85 90 95 98 99 97 98 101 102 104 106
54 15 33 350 219 236 297 185 15 360 310 272 251 246 270 272 275 275 273 278 264 260 270 276 280 280 277 275 272 275 275 281 284 275 282 291 295 300 305 309 312 314 317 319 322 325 327 329 330 333 334 336 337 339 344 347 349 350 347 345 344 346 351 354 358 359 358 359 1 6 11 16 24 32 39 41 43 44 43 42 43 48 55 62 72 80 83 86 91 97 98 93 95 102 106 109 108
63 61 21 323 298 257 302 9 36 5 309 269 245 253 279 282 284 283 271 274 263 256 264 269 271 272 274 276 277 280 278 281 280 269 273 283 290 296 302 306 310 313 315 317 319 323 327 328 330 332 333 334 334 335 339 343 346 349 350 349 346 346 349 350 352 355 356 356 356 359 3 9 15 24 34 39 43 45 45 45 44 45 48 53 59 65 73 80 85 93 97 95 97 101 105 111 113
103 119 210 272 287 287 70 117 92 6 306 256 224 266 279 277 283 288 269 260 252 244 250 254 251 250 261 271 280 282 284 282 273 263 265 274 285 294 302 304 307 310 312 315 318 323 328 329 331 331 331 333 333 332 334 338 341 343 347 350 352 351 350 349 348 349 353 352 351 353 356 0 7 14 23 32 39 43 45 46 46 48 49 49 50 53 57 64 73 84 92 97 100 104 108 111 114
114 228 298 168 249 295 45 296 88 16 313 236 216 279 276 273 280 273 238 237 226 211 209 212 214 221 237 253 272 279 284 284 270 260 263 274 285 292 301 303 304 306 309 311 316 325 328 330 332 331 332 333 333 332 332 335 337 339 343 346 350 352 351 350 348 346 348 349 348 348 349 353 360 4 12 22 30 36 40 43 45 48 49 49 49 49 49 51 59 69 79 90 98 109 116 117 116
38 236 282 248 310 304 278 175 159 308 293 284 317 296 284 284 287 262 231 232 227 208 200 195 198 207 222 242 265 274 275 273 260 255 264 277 286 291 297 299 300 303 305 305 314 325 329 331 332 332 333 332 332 332 332 334 335 337 340 342 345 348 350 349 348 346 344 345 345 345 345 345 351 356 2 11 18 25 30 35 39 43 45 48 49 48 47 45 49 54 60 70 83 98 105 109 116
19 6 311 327 2 325 260 129 308 291 271 305 310 291 281 290 270 245 231 246 269 245 226 219 218 221 229 252 277 285 282 270 251 246 259 272 279 288 295 298 300 302 302 303 311 320 325 329 330 331 332 330 329 331 333 332 331 332 335 338 340 342 345 346 346 345 341 340 340 342 342 340 342 347 352 359 5 11 17 22 27 32 36 41 44 44 42 40 40 42 44 48 56 72 74 74 97
68 19 355 336 338 314 292 326 319 290 197 307 310 276 243 240 224 209 167 278 287 270 257 252 246 243 248 268 291 300 299 286 266 249 251 264 273 285 297 300 301 303 302 304 309 314 318 323 326 327 327 325 326 328 331 329 325 325 327 330 333 335 338 338 339 339 337 336 335 337 338 337 338 340 343 348 351 357 2 6 13 19 24 28 33 36 35 35 34 32 33 33 35 44 44 39 59
123 85 6 340 324 300 295 316 317 266 172 27 331 284 181 138 235 232 110 305 278 263 263 259 250 247 249 265 290 299 299 292 279 264 258 267 279 292 303 303 301 301 302 303 308 311 314 319 322 323 322 320 321 324 327 325 321 319 320 322 323 324 327 326 327 329 332 334 335 338 340 339 338 336 337 338 340 344 347 351 355 359 5 9 15 20 24 27 28 27 27 25 25 26 24 16 10
141 73 37 348 311 298 313 332 319 266 320 357 344 328 320 189 228 250 30 301 274 258 253 252 245 238 236 247 274 289 291 289 283 278 277 278 286 297 305 307 304 301 298 298 303 308 310 315 318 320 320 317 317 320 321 320 318 316 314 315 315 315 317 317 320 324 327 330 333 337 340 342 340 336 334 333 333 334 335 339 341 344 347 349 353 357 2 7 8 11 12 16 18 13 13 356 331
349 68 325 291 311 305 336 336 311 335 315 261 31 14 285 269 108 67 3 293 270 262 249 242 238 235 231 237 260 282 283 282 283 283 283 283 287 296 304 307 305 299 294 293 297 302 305 309 311 315 316 316 316 318 319 317 315 313 312 311 311 311 312 312 316 319 320 322 327 330 332 335 338 336 334 331 329 328 327 328 329 330 332 333 336 338 341 341 338 341 341 343 345 338 335 311 301
24 103 255 329 331 322 337 303 281 328 273 208 49 9 275 264 112 113 356 284 267 266 250 236 229 229 227 230 249 275 278 278 283 284 284 285 286 291 296 302 305 299 292 291 293 297 301 304 305 308 309 310 312 315 317 317 314 311 309 308 307 308 308 307 310 313 313 315 319 321 323 326 328 330 332 330 329 327 325 324 321 321 320 320 321 320 320 320 318 318 316 314 312 306 304 295 285
69 145 191 133 162 177 299 297 288 256 255 156 29 352 316 313 110 148 140 252 261 265 252 244 222 221 222 225 239 260 269 275 282 287 290 291 290 290 290 295 301 300 294 293 294 296 300 301 301 303 303 302 304 308 312 314 313 311 310 308 306 306 304 303 305 308 308 309 312 315 316 318 319 320 322 323 325 324 323 323 319 316 314 311 310 309 308 307 306 306 304 303 300 296 294 289 285
113 197 226 196 193 204 208 281 290 245 233 102 32 348 329 318 83 177 194 183 228 201 206 224 208 212 217 221 232 245 255 267 276 286 294 297 297 296 293 292 294 295 295 295 296 297 301 302 300 301 301 299 298 301 304 308 310 310 311 308 306 305 302 300 302 305 304 304 306 308 309 311 312 312 312 313 314 317 319 320 319 315 311 308 305 303 301 299 298 297 297 296 294 293 290 286 285
233 238 256 238 195 199 208 194 221 265 319 98 45 342 307 266 177 138 197 189 215 225 223 211 201 212 218 221 230 239 250 263 272 283 292 298 301 303 302 299 296 293 293 293 294 296 299 302 302 303 305 300 296 296 299 301 304 307 309 308 307 305 300 298 299 300 300 299 300 301 302 304 304 304 304 303 304 306 309 312 312 311 307 304 301 298 297 296 294 293 291 291 290 290 289 288 288
246 244 261 271 195 185 232 197 204 278 13 108 105 341 278 246 256 267 256 232 224 240 257 261 235 226 228 230 235 243 252 263 273 281 289 295 300 303 306 306 305 300 296 293 291 293 296 299 300 302 306 303 297 296 295 295 298 302 304 305 306 303 300 298 297 296 295 293 293 295 295 296 296 296 296 297 297 299 301 302 302 302 300 298 296 294 293 291 291 289 288 287 286 286 286 286 286
258 304 318 311 347 14 337 324 274 286 17 115 193 313 278 258 267 256 265 298 305 260 256 258 254 243 239 237 240 247 254 262 272 281 289 296 299 301 302 304 307 307 304 299 294 293 294 296 297 298 300 301 299 298 296 294 295 296 298 300 302 301 298 296 295 294 293 292 290 290 290 290 289 289 289 290 291 293 295 296 295 294 293 291 290 289 288 287 287 286 285 285 283 283 283 282 282
18 329 309 316 357 344 324 318 313 315 318 125 171 284 271 319 1 207 267 299 296 274 260 257 256 253 252 250 248 252 259 264 270 276 286 298 302 302 303 304 305 306 306 306 303 299 297 297 297 297 298 299 297 297 299 297 293 291 291 294 296 297 297 295 294 293 292 291 290 288 288 288 286 286 285 285 285 287 290 290 290 290 288 286 286 286 285 284 284 283 283 282 282 282 281 281 280
120 189 258 319 357 341 9 15 352 329 306 271 228 262 242 275 306 277 274 285 279 269 262 260 260 260 261 260 258 262 269 274 274 274 280 292 302 307 310 311 310 307 304 305 306 305 302 302 301 300 300 299 296 296 297 297 294 290 288 290 292 293 293 294 294 293 291 289 289 289 289 287 285 284 283 282 282 283 285 286 286 286 285 283 282 282 283 283 283 282 281 281 280 279 280 281 280
196 256 35 47 348 283 111 97 142 224 274 274 294 285 281 277 277 282 293 288 269 254 250 253 258 260 260 262 267 274 281 287 286 280 279 285 296 305 310 313 312 309 304 303 304 304 303 304 304 303 302 300 298 296 294 295 296 294 290 288 288 289 290 291 293 293 292 290 288 289 289 287 286 285 282 280 280 280 282 282 282 281 280 279 278 278 278 279 280 280 280 280 279 277 277 279 279
280 329 93 111 238 224 209 285 302 263 283 301 50 300 302 309 292 306 309 282 254 231 241 255 258 258 259 264 275 283 287 293 294 289 286 288 294 301 307 309 309 306 303 301 302 302 302 303 303 302 301 301 300 295 292 293 294 295 295 290 287 286 286 288 290 291 291 290 290 290 289 287 286 285 283 281 279 279 279 279 279 278 276 275 274 274 274 274 274 275 277 278 278 277 276 277 278
355 91 113 197 282 46 286 301 331 338 308 291 308 305 278 240 219 229 193 210 226 224 258 275 261 259 266 277 289 293 293 295 297 298 297 295 297 300 303 303 302 301 299 299 301 301 301 302 301 301 302 302 299 295 292 291 292 293 294 293 290 288 287 287 288 288 287 288 291 292 291 289 288 285 284 282 281 280 279 277 276 275 273 271 271 271 270 270 269 270 272 274 275 275 275 277 278
164 144 143 306 5 349 354 29 316 302 307 293 313 332 254 214 215 224 202 197 214 228 252 274 279 284 287 295 305 307 306 304 302 302 300 298 297 296 297 297 296 296 297 299 300 300 300 301 301 303 304 305 303 300 295 292 291 291 290 291 291 291 291 289 287 286 286 287 290 291 292 293 291 288 285 283 282 281 280 278 275 273 271 270 269 268 268 267 267 266 267 269 270 271 272 274 277
208 190 163 132 107 319 265 106 355 302 293 269 291 298 272 221 179 212 220 203 227 246 261 284 292 296 298 305 311 313 313 311 308 303 300 297 296 294 292 292 293 295 297 298 299 299 299 299 300 302 302 305 308 307 302 296 292 290 289 289 290 291 291 290 289 288 287 288 289 289 291 293 291 290 288 286 283 282 281 278 276 273 270 269 268 267 266 265 265 265 264 265 266 266 267 270 272
309 288 224 156 143 201 233 244 63 343 279 245 271 289 283 281 152 226 238 250 279 266 274 285 291 298 305 310 313 314 314 315 315 311 307 304 300 297 294 293 295 296 296 297 297 296 297 298 300 300 301 304 308 308 306 302 296 293 292 292 291 291 290 290 289 288 288 288 289 289 289 289 289 289 289 288 285 283 281 278 275 273 270 268 266 265 265 264 264 264 264 264 264 265 265 266 268